Weather in Tatarbunary

Ukraine / Odesa District     45°50′12″N   29°37′00″E
temp.,
°C
wind,
m/s
gust,
m/s
humid.,
%
clouds,
%
prec.,
mm/h
press.,
hPa
HPBL,
m
18 october, mon
mon1800:00+12n3747100 0.0 1021283
03:00+10n365615 0.0 1022174
06:00+7n34695 0.0 102282
09:00+9n23615 0.0 1023169
12:00+14n22448 0.0 1023800
15:00+16wnw33415 0.0 10221349
18:00+14wnw33505 0.0 102237
21:00+12w225888 0.0 102311
19 october, tue
tue1900:00+11nw3462100 0.0 102456
03:00+11nnw4951100 0.0 1025367
06:00+11nw5116299 0.0 1025605
09:00+10nw486653 0.0 1027306
12:00+14nnw61048100 0.0 10281403
15:00+13nw785393 0.0 10281075
18:00+12nw58535 0.0 1028265
21:00+9nw33620 0.0 102934
20 october, wed
wed2000:00+8nnw226892 0.0 103011
03:00+9wsw116659 0.0 103012
06:00+7sw227428 0.0 102921
09:00+10ssw24640 0.0 1029137
12:00+15ssw56505 0.0 10281069
15:00+18ssw66428 0.0 10261607
18:00+14s61060100 0.0 1025381
21:00+12s7137486 0.0 1025433
21 october, thu
thu2100:00+12s71476100 0.0 1024482
03:00+11s714785 0.0 1023461
06:00+11s613825 0.0 1022423
09:00+12s6137597 0.0 1021603
12:00+18ssw911495 0.0 1020970
15:00+18ssw9104725 0.0 1017978
18:00+15s7116351 0.0 1016413
21:00+13s61379100 0.0 1016324
22 october, fri
fri2200:00+12ssw4108544 0.0 1016205
03:00+11sw47766 0.0 1015120
06:00+11sw33735 0.0 101524
09:00+13sw24630 0.0 1015115
12:00+20ssw34390 0.0 1014599
15:00+22s45340 0.0 10121133
18:00+18ssw33480 0.0 101230
21:00+14s49715 0.0 1012162